Location: B?dimalle
(17.1788°N, 80.5377°E)
Time: 10:51:35
(UTC+00:00)

Tiros 1 despin weight - Pass Details

Date: 21 February 2026
Orbit: 556 x 593 km, 48.2° (Epoch: 10 March)

Event Time Altitude Azimuth Distance (km) Brightness Sun altitude
Rises 07:20:31 0° 254° (WSW) 2,763 ? 61.4°
Reaches altitude 10° 07:23:20 10° 272° (W) 1,859 ? 61.2°
Maximum altitude 07:26:21 19° 318° (NW) 1,381 ? 61.0°
Drops below altitude 10° 07:29:20 10° 3° (N) 1,844 ? 60.8°
Sets 07:32:08 0° 22° (NNE) 2,734 ? 60.5°
